User: anonymous   Login
Location: Unspecified
(0.0000°N, 0.0000°E)
Time: 06:46:39
(UTC+00:00)
Language:

HORYU 2 - Orbit

View from above orbital plane
View from above orbital plane
View from above satellite
View from above satellite

Ground track
Ground track

The orbit data is extracted from the following two-line orbital elements,

1 38340U 12025D   17087.92073718 +.00000421 +00000-0 +70316-4 0  9996
2 38340 098.3762 089.0199 0011564 180.7390 179.3803 14.75282010251049
Epoch (UTC): 28 March 2017 22:05:51
Eccentricity: 0.0011564
inclination: 98.3762°
perigee height: 636 km
apogee height: 652 km
right ascension of ascending node: 89.0199°
argument of perigee: 180.7390°
revolutions per day: 14.75282010
mean anomaly at epoch: 179.3803°
orbit number at epoch: 25104

The dashed part of the orbit path shows where the satellite is in the earth's shadow,  

DLR